Date,TemperatureHighF,TemperatureAvgF,TemperatureLowF,DewpointHighF,DewpointAvgF,DewpointLowF,HumidityHigh,HumidityAvg,HumidityLow,PressureMaxIn,PressureMinIn,WindSpeedMaxMPH,WindSpeedAvgMPH,GustSpeedMaxMPH,PrecipitationSumIn
2013-3-1,35,33,32,31,30,28,95,89,80,30.24,30.14,12,5,16,0.00
2013-3-2,39,32,27,29,26,24,89,79,59,30.28,30.14,14,3,14,0.00
2013-3-3,36,31,24,30,26,21,92,83,72,30.25,30.12,12,3,17,0.00
2013-3-4,43,35,29,30,27,24,93,73,52,30.29,30.19,9,2,15,0.00
2013-3-5,47,39,32,34,30,24,80,69,57,30.19,29.88,13,5,19,0.00
2013-3-6,53,42,31,40,33,28,89,72,51,29.88,29.64,7,2,10,0.00
2013-3-7,50,44,40,44,41,38,95,89,78,29.64,29.58,5,1,8,0.00
2013-3-8,45,42,39,44,42,39,99,96,93,29.65,29.61,7,2,9,0.00
2013-3-9,42,40,38,42,39,37,99,98,97,29.65,29.58,5,1,6,0.14
2013-3-10,52,44,40,46,41,39,100,90,62,29.58,29.44,12,2,17,0.02
2013-3-11,42,29,25,41,27,22,96,91,85,29.69,29.44,13,4,19,0.06
2013-3-12,29,26,24,27,24,22,93,92,90,29.68,29.52,8,3,11,0.00
2013-3-13,26,24,22,24,22,19,96,91,83,29.74,29.51,10,3,12,0.00
2013-3-14,29,24,20,20,18,16,91,79,63,29.83,29.74,12,5,21,0.00
2013-3-15,29,24,20,22,18,15,93,80,58,30.09,29.82,16,5,21,0.00
2013-3-16,36,26,15,22,16,12,94,70,39,30.18,30.06,9,2,11,0.01
2013-3-17,38,30,24,22,20,16,75,67,53,30.06,29.70,23,8,30,0.01
2013-3-18,37,31,28,32,27,22,97,85,69,29.70,29.24,13,6,18,0.00
2013-3-19,38,33,30,34,31,29,97,94,87,29.61,29.23,17,6,21,0.30
2013-3-20,48,39,30,37,33,29,96,82,57,29.79,29.61,14,4,17,0.02
2013-3-21,38,33,28,36,29,23,96,86,74,30.07,29.79,16,5,24,0.02
2013-3-22,31,28,26,26,23,21,93,83,73,30.14,30.07,13,4,18,0.00
2013-3-23,28,23,15,21,14,7,84,70,56,30.22,30.12,18,8,24,0.00
2013-3-24,31,22,13,16,9,5,78,59,34,30.21,30.10,22,9,30,0.00
2013-3-25,28,23,20,19,15,13,81,72,61,30.11,29.94,23,10,26,0.00
2013-3-27,23,22,22,20,19,19,89,88,86,29.90,29.89,9,5,11,0.00
2013-3-28,38,33,27,29,27,24,92,79,68,29.90,29.78,11,5,18,0.00
2013-3-29,40,34,30,33,27,24,96,77,53,29.78,29.67,21,6,27,0.03
2013-3-30,43,35,28,29,26,23,87,72,52,29.73,29.65,11,2,14,0.00
2013-3-31,34,31,29,29,27,25,94,86,73,29.79,29.69,13,4,18,0.02